Flag for Austria

Past Weather in Wels, Upper Austria, Austria — Yesterday and Last 2 Weeks

Now
55 °F

Cool.


Feels Like: 55 °F
Forecast: 68 / 44 °F
Wind: 2 mph from North

Location: Linz / Hoersching-Flughafen
Current Time: Oct 1, 2020 at 9:22:25 pm
Latest Report: Oct 1, 2020 at 8:00 pm
Visibility: 17 mi
Pressure29.68 "Hg
Humidity: 80%
Dew Point: 49 °F
Location of WelsLocation

Past Weather in Wels — Graph

°F

Wels Temperature Yesterday

Maximum temperature yesterday: 63 °F (at 5:00 pm)
Minimum temperature yesterday: 49 °F (at 11:00 pm)
Average temperature yesterday: 56 °F

High & Low Weather Summary for the Past Weeks

 TemperatureHumidityPressure
High80 °F (Sep 16, 6:00 pm)100% (Sep 22, 7:00 am)30.34 "Hg (Sep 22, 7:00 am)
Low40 °F (Sep 27, 7:00 am)44% (Sep 18, 5:00 pm)29.44 "Hg (Sep 26, 8:00 am)
Average57 °F80%29.90 "Hg
* Reported Sep 16 6:00 pm — Oct 1 6:00 pm, Wels. Weather by CustomWeather, © 2020

Note: Actual official high and low records may vary slightly from our data, if they occured in-between our weather recording intervals... More about our weather records

Wels Weather History for the Previous 24 Hours

Scroll right to see more
 ConditionsComfort  
Time TempWeatherWind HumidityBarometerVisibility
6:00 pm
Thu, Oct 1
63 °FMild.2 mph53%29.65 "Hg31 mi
5:00 pm65 °FPassing clouds.2 mph48%29.65 "Hg40 mi
4:00 pm65 °FPassing clouds.1 mph54%29.66 "Hg28 mi
3:00 pm64 °FPassing clouds.1 mph60%29.68 "Hg28 mi
2:00 pm60 °FPassing clouds.1 mph72%29.71 "Hg19 mi
1:00 pm55 °FPassing clouds.1 mph85%29.75 "Hg14 mi
12:00 pm48 °FLow clouds.1 mph100%29.79 "Hg2 mi
11:00 am46 °FLight rain. Dense fog.2 mph100%29.81 "Hg0 mi
10:00 am45 °FLight rain. Dense fog.1 mph100%29.83 "Hg0 mi
9:00 am43 °FLight rain. Dense fog.1 mph100%29.84 "Hg0 mi
8:00 am44 °FLight rain. Dense fog.2 mph100%29.85 "Hg0 mi
6:00 am43 °FLight rain. Low clouds.1 mph100%29.87 "Hg1 mi
5:00 am42 °FLow clouds.1 mph100%29.87 "Hg2 mi
2:00 am44 °FQuite cool.2 mph97%29.92 "Hg5 mi
11:00 pm
Wed, Sep 30
49 °FPassing clouds.1 mph94%29.95 "Hg11 mi
10:00 pm49 °FCool.1 mph94%29.96 "Hg16 mi
9:00 pm51 °FCool.2 mph86%29.96 "Hg17 mi
Weather by CustomWeather, © 2020

See weather overview